Starlink 11548

operational
NORAD ID: 62829 Int'l Des: 2025-019 Owner: SPXS Country: US Constellation: starlink
LEOCIRCULAR

关于 Starlink 11548

正在加载描述...

实时位置

正在加载3D地球...

即将过境

高度历史

Altitude vs Time

uPlot chart will show altitude changes over time

两行轨道根数

1 62829U 25019A 25258.13430750 .00256862 00000-0 19415-2 0 9990
2 62829 43.0000 283.8880 0003618 293.9077 66.1412 15.70868282 36273
Epoch: Sep 15, 2025 • Age: 10 hours

当前状态

高度 366.7 km
速度 7.69 km/s
星下点 -42.81°S, 2.25°E
发射日期 Jan 27, 2025
运行时间 0.6 years
类型 internet

技术详情

分类 Payload
质量 960.00 kg
干质量 910.00 kg
总质量 960.00 kg
长度 0.30 m
直径 4.10 m
跨度 29.00 m
形状 Box + pan
制造商 SPXS
平台类型 Starlink V2MD
阶段状态 In Orbit
所有者/国家 SPXS/US

大型星座

Loading constellations...